CFG7AE EDDM-GCLA

Flight info

Callsign CFG7AE
Flight time N/A
Altitude 31000
Route ALG2E/08R ALG Y109 UMTEX Y100 TRA/N0452F330 DCT LUTIX DCT BENOT DCT NEMOS DCT NINTU DCT MEBAK DCT REPSI DCT LERGA DCT MINSO DCT NARAK DCT AGN DCT LATEK DCT PPN DCT MIRPO DCT DGO DCT NEA L14 ADINO DCT RAKOD DCT ELVAR DCT BEXAL/N0453F350 UN866 KONBA
Aircraft A321/M-SDE3FGHIRWY/LB1

Departure

Time N/A
Airport Munich Airport (EDDM)

Arrival

Time 2026-04-29 16:50
Airport La Palma Airport (GCLA)
Time Latitude Longitude Altitude Speed Heading
2026-04-29 12:57 46.35126 5.90765 32074 ft 430 kts 233°
2026-04-29 12:57 46.33219 5.87424 32070 ft 430 kts 233°
2026-04-29 12:57 46.31340 5.84146 32124 ft 411 kts 233°
2026-04-29 12:58 46.29571 5.81078 32056 ft 392 kts 233°
2026-04-29 12:58 46.27869 5.78131 32077 ft 373 kts 233°
2026-04-29 12:58 46.26221 5.75273 32087 ft 367 kts 233°
2026-04-29 12:59 46.22972 5.69611 32075 ft 365 kts 233°
2026-04-29 12:59 46.19732 5.63974 32072 ft 365 kts 233°
2026-04-29 13:00 46.16476 5.58332 32072 ft 366 kts 233°
2026-04-29 13:00 46.13377 5.52508 32064 ft 365 kts 238°
2026-04-29 13:01 46.10489 5.46460 32057 ft 372 kts 238°
2026-04-29 13:01 46.07498 5.40206 32064 ft 385 kts 238°
2026-04-29 13:02 46.04393 5.33753 32060 ft 398 kts 238°
2026-04-29 13:02 46.01206 5.27138 32056 ft 410 kts 238°
2026-04-29 13:03 45.97899 5.20299 32055 ft 423 kts 238°
2026-04-29 13:03 45.94481 5.13248 32054 ft 435 kts 237°
2026-04-29 13:04 45.90964 5.06014 32053 ft 446 kts 237°
2026-04-29 13:04 45.87362 4.98631 32057 ft 455 kts 237°
2026-04-29 13:04 45.85581 4.94996 32046 ft 443 kts 237°
2026-04-29 13:05 45.83831 4.91427 32055 ft 434 kts 237°
2026-04-29 13:05 45.80371 4.84370 32058 ft 431 kts 237°
2026-04-29 13:06 45.76928 4.77340 32056 ft 430 kts 237°
2026-04-29 13:06 45.73476 4.70315 32051 ft 430 kts 237°
2026-04-29 13:07 45.70021 4.63312 32049 ft 430 kts 237°
2026-04-29 13:07 45.66592 4.56362 32030 ft 430 kts 237°
2026-04-29 13:08 45.63135 4.49376 32028 ft 430 kts 236°
2026-04-29 13:08 45.59668 4.42401 32026 ft 430 kts 236°
2026-04-29 13:09 45.56195 4.35435 32021 ft 430 kts 236°
2026-04-29 13:09 45.52721 4.28479 32018 ft 430 kts 236°
2026-04-29 13:10 45.49272 4.21578 32018 ft 430 kts 236°
2026-04-29 13:10 45.45788 4.14640 32014 ft 430 kts 236°
2026-04-29 13:11 45.42324 4.07762 32010 ft 429 kts 236°
2026-04-29 13:11 45.38832 4.00853 32000 ft 429 kts 236°
2026-04-29 13:12 45.35344 3.93950 31992 ft 429 kts 236°
2026-04-29 13:12 45.31848 3.87055 32005 ft 429 kts 235°
2026-04-29 13:13 45.28349 3.80184 32015 ft 429 kts 235°
2026-04-29 13:13 45.24872 3.73342 32024 ft 429 kts 236°
2026-04-29 13:14 45.21435 3.66392 32030 ft 430 kts 236°
2026-04-29 13:14 45.18036 3.59418 32027 ft 429 kts 236°
2026-04-29 13:15 45.14645 3.52511 32019 ft 429 kts 236°
2026-04-29 13:15 45.11207 3.45579 32010 ft 429 kts 236°
2026-04-29 13:16 45.08345 3.39828 32001 ft 429 kts 235°
2026-04-29 13:16 45.04905 3.32916 31990 ft 429 kts 235°
2026-04-29 13:17 45.01465 3.26020 31980 ft 429 kts 235°
2026-04-29 13:17 44.98027 3.19135 31986 ft 429 kts 235°
2026-04-29 13:18 44.94599 3.12301 31990 ft 428 kts 235°
2026-04-29 13:18 44.91885 3.06915 31992 ft 428 kts 234°
2026-04-29 13:19 44.88544 3.00274 31992 ft 428 kts 234°
2026-04-29 13:19 44.85088 2.93430 32180 ft 430 kts 234°
2026-04-29 13:19 44.83380 2.89971 32485 ft 429 kts 236°
2026-04-29 13:20 44.81739 2.86469 32812 ft 428 kts 237°
2026-04-29 13:20 44.80138 2.82938 33158 ft 426 kts 237°
2026-04-29 13:20 44.78579 2.79457 33479 ft 425 kts 237°
2026-04-29 13:20 44.77000 2.75940 33813 ft 423 kts 237°
2026-04-29 13:21 44.75414 2.72442 33975 ft 423 kts 237°
2026-04-29 13:21 44.72216 2.65503 33997 ft 422 kts 236°
2026-04-29 13:22 44.68999 2.58603 33995 ft 421 kts 236°
2026-04-29 13:22 44.65802 2.51760 33977 ft 421 kts 236°
2026-04-29 13:23 44.62588 2.44871 34003 ft 421 kts 236°
2026-04-29 13:23 44.59370 2.37997 33983 ft 421 kts 236°
2026-04-29 13:24 44.56156 2.31124 33976 ft 421 kts 236°
2026-04-29 13:24 44.52930 2.24247 33978 ft 421 kts 235°
2026-04-29 13:25 44.49723 2.17434 33970 ft 421 kts 235°
2026-04-29 13:25 44.44862 2.07146 33961 ft 422 kts 235°
2026-04-29 13:26 44.41621 2.00299 33955 ft 422 kts 235°
2026-04-29 13:26 44.38855 1.93093 33950 ft 423 kts 242°
2026-04-29 13:27 44.36262 1.85705 33940 ft 423 kts 242°
2026-04-29 13:27 44.33677 1.78288 33932 ft 424 kts 242°
2026-04-29 13:28 44.31081 1.70897 33935 ft 424 kts 242°
2026-04-29 13:28 44.28468 1.63514 33923 ft 423 kts 241°
2026-04-29 13:29 44.25863 1.56188 33929 ft 424 kts 241°
2026-04-29 13:29 44.23233 1.48805 33928 ft 424 kts 241°
2026-04-29 13:30 44.20617 1.41448 33925 ft 424 kts 241°
2026-04-29 13:30 44.17995 1.34096 33923 ft 423 kts 241°
2026-04-29 13:31 44.15364 1.26758 33921 ft 423 kts 240°
2026-04-29 13:31 44.12739 1.19475 33915 ft 423 kts 240°
2026-04-29 13:32 44.10098 1.12147 33923 ft 423 kts 240°
2026-04-29 13:32 44.07473 1.04860 33913 ft 423 kts 240°
2026-04-29 13:33 44.04823 0.97529 33910 ft 423 kts 240°
2026-04-29 13:33 44.02162 0.90231 33912 ft 423 kts 240°
2026-04-29 13:34 43.99494 0.82923 33917 ft 424 kts 240°
2026-04-29 13:34 43.96847 0.75672 33910 ft 424 kts 240°
2026-04-29 13:35 43.94179 0.68366 33915 ft 424 kts 240°
2026-04-29 13:35 43.91500 0.61077 33918 ft 424 kts 239°
2026-04-29 13:36 43.88818 0.53798 33913 ft 424 kts 239°
2026-04-29 13:36 43.86147 0.46558 33906 ft 424 kts 239°
2026-04-29 13:37 43.83454 0.39282 33910 ft 424 kts 239°
2026-04-29 13:37 43.80756 0.31996 33905 ft 424 kts 239°
2026-04-29 13:38 43.78073 0.24771 33906 ft 424 kts 239°
2026-04-29 13:38 43.75369 0.17518 33904 ft 424 kts 239°
2026-04-29 13:39 43.72667 0.10301 33907 ft 424 kts 239°
2026-04-29 13:39 43.69943 0.03044 33907 ft 424 kts 239°
2026-04-29 13:40 43.67228 -0.04181 33915 ft 423 kts 239°
2026-04-29 13:40 43.64507 -0.11411 33913 ft 423 kts 238°
2026-04-29 13:41 43.61794 -0.18605 33915 ft 423 kts 238°
2026-04-29 13:41 43.59060 -0.25818 33913 ft 424 kts 238°
2026-04-29 13:42 43.56334 -0.32993 33913 ft 424 kts 238°
2026-04-29 13:42 43.53628 -0.40100 33915 ft 424 kts 238°
2026-04-29 13:43 43.50876 -0.47299 33917 ft 424 kts 238°
2026-04-29 13:43 43.48119 -0.54503 33915 ft 424 kts 238°
2026-04-29 13:44 43.45368 -0.61694 33912 ft 424 kts 238°
2026-04-29 13:44 43.42625 -0.68831 33914 ft 424 kts 237°
2026-04-29 13:45 43.39857 -0.76000 33906 ft 424 kts 237°
2026-04-29 13:45 43.37089 -0.83159 33898 ft 424 kts 237°
2026-04-29 13:46 43.34319 -0.90312 33898 ft 424 kts 237°
2026-04-29 13:46 43.31536 -0.97471 33890 ft 423 kts 237°
2026-04-29 13:47 43.28770 -1.04556 33888 ft 423 kts 237°
2026-04-29 13:47 43.25991 -1.11675 33892 ft 423 kts 237°
2026-04-29 13:48 43.23207 -1.18803 33886 ft 423 kts 237°
2026-04-29 13:48 43.20417 -1.25909 33893 ft 422 kts 237°
2026-04-29 13:49 43.17645 -1.32939 33877 ft 422 kts 237°
2026-04-29 13:49 43.14856 -1.40020 33878 ft 422 kts 237°
2026-04-29 13:50 43.12071 -1.47081 33877 ft 421 kts 237°
2026-04-29 13:50 43.09282 -1.54133 33878 ft 421 kts 237°
2026-04-29 13:51 43.06482 -1.61185 33888 ft 420 kts 237°
2026-04-29 13:51 43.03706 -1.68152 33896 ft 420 kts 237°
2026-04-29 13:52 43.00902 -1.75163 33903 ft 420 kts 237°
2026-04-29 13:52 42.98099 -1.82172 33899 ft 419 kts 237°
2026-04-29 13:53 42.95292 -1.89178 33889 ft 420 kts 237°
2026-04-29 13:53 42.92486 -1.96169 33882 ft 421 kts 237°
2026-04-29 13:54 42.89660 -2.03169 33870 ft 421 kts 237°
2026-04-29 13:54 42.86845 -2.10123 33859 ft 421 kts 238°
2026-04-29 13:55 42.84010 -2.17122 33861 ft 422 kts 238°
2026-04-29 13:55 42.81166 -2.24134 33868 ft 422 kts 238°
2026-04-29 13:56 42.78316 -2.31128 33871 ft 422 kts 238°
2026-04-29 13:56 42.76224 -2.36245 33875 ft 421 kts 238°
2026-04-29 13:57 42.73374 -2.43230 33877 ft 421 kts 238°
2026-04-29 13:57 42.71003 -2.49028 33880 ft 421 kts 238°
2026-04-29 13:58 42.67674 -2.57152 33881 ft 420 kts 238°
2026-04-29 13:58 42.64837 -2.64029 33876 ft 420 kts 238°
2026-04-29 13:59 42.61977 -2.70952 33867 ft 419 kts 238°
2026-04-29 13:59 42.59118 -2.77864 33860 ft 419 kts 238°
2026-04-29 14:00 42.56259 -2.84768 33846 ft 419 kts 237°
2026-04-29 14:00 42.53406 -2.91637 33839 ft 419 kts 237°
2026-04-29 14:01 42.50534 -2.98530 33838 ft 419 kts 237°
2026-04-29 14:01 42.47674 -3.05380 33836 ft 420 kts 237°
2026-04-29 14:02 42.44787 -3.12269 33831 ft 420 kts 237°
2026-04-29 14:02 42.41895 -3.19161 33834 ft 420 kts 237°
2026-04-29 14:03 42.39022 -3.25997 33835 ft 421 kts 237°
2026-04-29 14:03 42.36123 -3.32888 33839 ft 422 kts 237°
2026-04-29 14:04 42.33211 -3.39789 33845 ft 422 kts 238°
2026-04-29 14:04 42.30760 -3.45566 33850 ft 422 kts 238°
2026-04-29 14:05 42.27851 -3.52411 33853 ft 423 kts 238°
2026-04-29 14:05 42.24923 -3.59298 33853 ft 423 kts 238°
2026-04-29 14:06 42.21981 -3.66202 33853 ft 423 kts 238°
2026-04-29 14:06 42.19038 -3.73087 33854 ft 424 kts 238°
2026-04-29 14:07 42.16109 -3.79925 33851 ft 424 kts 238°
2026-04-29 14:07 42.13153 -3.86805 33850 ft 424 kts 238°
2026-04-29 14:08 42.10200 -3.93684 33852 ft 423 kts 238°
2026-04-29 14:08 42.07253 -4.00518 33855 ft 423 kts 237°
2026-04-29 14:09 42.04291 -4.07360 33857 ft 423 kts 237°
2026-04-29 14:09 42.00615 -4.13435 33858 ft 418 kts 219°
2026-04-29 14:10 41.96227 -4.18553 33853 ft 417 kts 219°
2026-04-29 14:10 41.91842 -4.23697 33854 ft 417 kts 219°
2026-04-29 14:11 41.87489 -4.28803 33860 ft 417 kts 219°
2026-04-29 14:11 41.83110 -4.33923 33855 ft 417 kts 219°
2026-04-29 14:12 41.78731 -4.39020 33852 ft 417 kts 219°
2026-04-29 14:12 41.74341 -4.44110 33847 ft 417 kts 219°
2026-04-29 14:13 41.69970 -4.49167 33848 ft 418 kts 219°
2026-04-29 14:13 41.65568 -4.54265 33846 ft 418 kts 219°
2026-04-29 14:14 41.61162 -4.59358 33846 ft 419 kts 219°
2026-04-29 14:14 41.56735 -4.64467 33841 ft 420 kts 219°
2026-04-29 14:15 41.52301 -4.69576 33842 ft 421 kts 219°
2026-04-29 14:15 41.47886 -4.74654 33848 ft 421 kts 219°
2026-04-29 14:16 41.43433 -4.79763 33845 ft 422 kts 219°
2026-04-29 14:16 41.38981 -4.84855 33848 ft 422 kts 219°
2026-04-29 14:17 41.34527 -4.89940 33848 ft 422 kts 219°
2026-04-29 14:17 41.30072 -4.95023 33849 ft 421 kts 219°
2026-04-29 14:18 41.25645 -5.00065 33847 ft 421 kts 219°
2026-04-29 14:18 41.21189 -5.05121 33856 ft 421 kts 219°
2026-04-29 14:19 41.16747 -5.10147 33853 ft 421 kts 220°
2026-04-29 14:19 41.12279 -5.15195 33855 ft 420 kts 220°
2026-04-29 14:20 41.07827 -5.20230 33857 ft 420 kts 220°
2026-04-29 14:20 41.03415 -5.25221 33864 ft 419 kts 220°
2026-04-29 14:21 40.98972 -5.30225 33867 ft 419 kts 220°
2026-04-29 14:21 40.94527 -5.35209 33872 ft 418 kts 220°
2026-04-29 14:22 40.90083 -5.40188 33871 ft 418 kts 220°
2026-04-29 14:22 40.85663 -5.45131 33877 ft 417 kts 220°
2026-04-29 14:23 40.81223 -5.50090 33871 ft 417 kts 220°
2026-04-29 14:23 40.76788 -5.55033 33866 ft 417 kts 220°
2026-04-29 14:24 40.72357 -5.59964 33866 ft 416 kts 220°
2026-04-29 14:24 40.67932 -5.64878 33864 ft 416 kts 220°
2026-04-29 14:25 40.63519 -5.69774 33868 ft 415 kts 220°
2026-04-29 14:25 40.59441 -5.74291 33870 ft 414 kts 220°
2026-04-29 14:26 40.55034 -5.79159 33876 ft 413 kts 220°
2026-04-29 14:26 40.50625 -5.84022 33879 ft 412 kts 220°
2026-04-29 14:27 40.46252 -5.88840 33875 ft 412 kts 220°
2026-04-29 14:28 40.39662 -5.96089 33867 ft 411 kts 220°
2026-04-29 14:28 40.35280 -6.00889 33865 ft 411 kts 220°
2026-04-29 14:29 40.30882 -6.05696 33860 ft 411 kts 220°
2026-04-29 14:29 40.26510 -6.10468 33860 ft 411 kts 220°
2026-04-29 14:30 40.22123 -6.15256 33858 ft 411 kts 220°
2026-04-29 14:30 40.17733 -6.20049 33857 ft 411 kts 220°
2026-04-29 14:31 40.13339 -6.24836 33856 ft 411 kts 220°
2026-04-29 14:31 40.08936 -6.29613 33855 ft 411 kts 220°
2026-04-29 14:32 40.04558 -6.34345 33855 ft 411 kts 220°
2026-04-29 14:32 40.00159 -6.39095 33857 ft 411 kts 220°
2026-04-29 14:33 39.95746 -6.43858 33858 ft 411 kts 220°
2026-04-29 14:33 39.91337 -6.48621 33855 ft 410 kts 220°
2026-04-29 14:34 39.86938 -6.53364 33858 ft 410 kts 221°
2026-04-29 14:34 39.82528 -6.58097 33870 ft 410 kts 220°
2026-04-29 14:35 39.78531 -6.62377 33861 ft 410 kts 221°
2026-04-29 14:35 39.74129 -6.67090 33861 ft 410 kts 221°
2026-04-29 14:36 39.69718 -6.71798 33864 ft 409 kts 221°
2026-04-29 14:36 39.65321 -6.76492 33883 ft 409 kts 221°
2026-04-29 14:37 39.60921 -6.81175 33869 ft 408 kts 221°
2026-04-29 14:37 39.56514 -6.85856 33880 ft 408 kts 221°
2026-04-29 14:38 39.52157 -6.90472 33867 ft 407 kts 221°
2026-04-29 14:38 39.47768 -6.95126 33865 ft 407 kts 221°
2026-04-29 14:39 39.43392 -6.99757 33868 ft 406 kts 221°
2026-04-29 14:39 39.39011 -7.04379 33868 ft 406 kts 221°
2026-04-29 14:40 39.34638 -7.08991 33868 ft 405 kts 221°
2026-04-29 14:40 39.30293 -7.13559 33867 ft 404 kts 221°
2026-04-29 14:41 39.25923 -7.18142 33869 ft 403 kts 221°
2026-04-29 14:41 39.21634 -7.22762 33862 ft 400 kts 227°
2026-04-29 14:42 39.17861 -7.27990 33864 ft 398 kts 229°
2026-04-29 14:42 39.14114 -7.33206 33868 ft 398 kts 229°
2026-04-29 14:43 39.10338 -7.38436 33871 ft 398 kts 229°
2026-04-29 14:43 39.06562 -7.43643 33865 ft 397 kts 229°
2026-04-29 14:44 39.02783 -7.48849 33863 ft 397 kts 229°
2026-04-29 14:44 38.99039 -7.54010 33861 ft 397 kts 229°
2026-04-29 14:45 38.95238 -7.59233 33861 ft 397 kts 229°
2026-04-29 14:45 38.91497 -7.64370 33857 ft 396 kts 230°
2026-04-29 14:46 38.87722 -7.69545 33858 ft 395 kts 230°
2026-04-29 14:46 38.83960 -7.74690 33861 ft 395 kts 230°
2026-04-29 14:47 38.80221 -7.79794 33865 ft 394 kts 230°
2026-04-29 14:47 38.76465 -7.84923 33867 ft 393 kts 230°
2026-04-29 14:48 38.72720 -7.90026 33869 ft 393 kts 230°
2026-04-29 14:48 38.68961 -7.95136 33872 ft 392 kts 230°
2026-04-29 14:49 38.65241 -8.00176 33875 ft 392 kts 230°
2026-04-29 14:49 38.61489 -8.05257 33874 ft 391 kts 230°
2026-04-29 14:50 38.57754 -8.10318 33871 ft 391 kts 230°
2026-04-29 14:50 38.54031 -8.15355 33863 ft 391 kts 230°
2026-04-29 14:51 38.50910 -8.19564 33865 ft 391 kts 230°
2026-04-29 14:51 38.47159 -8.24610 33867 ft 391 kts 231°
2026-04-29 14:52 38.43409 -8.29650 33867 ft 391 kts 231°
2026-04-29 14:52 38.39659 -8.34671 33868 ft 391 kts 231°
2026-04-29 14:53 38.35928 -8.39674 33868 ft 391 kts 231°
2026-04-29 14:53 38.32153 -8.44741 33875 ft 391 kts 231°
2026-04-29 14:54 38.28430 -8.49716 33876 ft 391 kts 231°
2026-04-29 14:54 38.24665 -8.54733 33877 ft 392 kts 231°
2026-04-29 14:55 38.20888 -8.59753 33880 ft 392 kts 231°
2026-04-29 14:55 38.17143 -8.64732 33880 ft 392 kts 231°
2026-04-29 14:56 38.13371 -8.69741 33882 ft 393 kts 231°
2026-04-29 14:56 38.09583 -8.74756 33884 ft 393 kts 231°
2026-04-29 14:57 38.05789 -8.79774 33884 ft 393 kts 231°
2026-04-29 14:57 38.01994 -8.84786 33885 ft 393 kts 231°
2026-04-29 14:58 37.98223 -8.89761 33886 ft 394 kts 231°
2026-04-29 14:58 37.94414 -8.94781 33888 ft 394 kts 231°
2026-04-29 14:59 37.90644 -8.99735 33890 ft 395 kts 231°
2026-04-29 14:59 37.86802 -9.04776 33891 ft 395 kts 231°
2026-04-29 15:00 37.82983 -9.09788 33895 ft 396 kts 231°
2026-04-29 15:00 37.79151 -9.14808 33893 ft 396 kts 231°
2026-04-29 15:01 37.75332 -9.19791 33894 ft 396 kts 231°
2026-04-29 15:01 37.71489 -9.24795 33892 ft 397 kts 231°
2026-04-29 15:02 37.67641 -9.29807 33890 ft 397 kts 231°
2026-04-29 15:02 37.63781 -9.34821 33888 ft 398 kts 230°
2026-04-29 15:03 37.59942 -9.39812 33892 ft 399 kts 230°
2026-04-29 15:03 37.56070 -9.44833 33891 ft 399 kts 230°
2026-04-29 15:04 37.52189 -9.49857 33894 ft 400 kts 230°
2026-04-29 15:04 37.48293 -9.54886 33897 ft 401 kts 230°
2026-04-29 15:05 37.44395 -9.59918 33895 ft 402 kts 230°
2026-04-29 15:05 37.40504 -9.64925 33898 ft 402 kts 230°
2026-04-29 15:06 37.36587 -9.69959 33897 ft 403 kts 230°
2026-04-29 15:06 37.32662 -9.74999 33901 ft 403 kts 230°
2026-04-29 15:07 37.28738 -9.80028 33901 ft 404 kts 230°
2026-04-29 15:07 37.24804 -9.85058 33900 ft 405 kts 230°
2026-04-29 15:08 37.20851 -9.90098 33902 ft 405 kts 230°
2026-04-29 15:08 37.16895 -9.95146 33907 ft 406 kts 230°
2026-04-29 15:09 37.12933 -10.00194 33901 ft 406 kts 230°
2026-04-29 15:09 37.08967 -10.05242 33906 ft 407 kts 230°
2026-04-29 15:10 37.04988 -10.10292 33907 ft 407 kts 230°
2026-04-29 15:10 37.00999 -10.15344 33908 ft 408 kts 230°
2026-04-29 15:11 36.97030 -10.20363 33908 ft 408 kts 230°
2026-04-29 15:11 36.93034 -10.25411 33911 ft 409 kts 230°
2026-04-29 15:12 36.89028 -10.30469 33911 ft 409 kts 230°
2026-04-29 15:12 36.85023 -10.35517 33910 ft 409 kts 230°
2026-04-29 15:13 36.80999 -10.40570 33912 ft 410 kts 230°
2026-04-29 15:13 36.76979 -10.45619 33914 ft 410 kts 230°
2026-04-29 15:14 36.72977 -10.50644 33918 ft 410 kts 230°
2026-04-29 15:14 36.68947 -10.55687 33920 ft 410 kts 229°
2026-04-29 15:15 36.64915 -10.60728 33917 ft 411 kts 230°
2026-04-29 15:15 36.60878 -10.65777 33918 ft 411 kts 229°
2026-04-29 15:16 36.56836 -10.70811 33921 ft 411 kts 229°
2026-04-29 15:16 36.52786 -10.75848 33919 ft 411 kts 229°
2026-04-29 15:17 36.48760 -10.80848 33920 ft 411 kts 229°
2026-04-29 15:17 36.44711 -10.85874 33923 ft 412 kts 229°
2026-04-29 15:18 36.40648 -10.90909 33925 ft 412 kts 229°
2026-04-29 15:18 36.36582 -10.95932 33923 ft 412 kts 229°
2026-04-29 15:19 36.32535 -11.00919 33927 ft 412 kts 229°
2026-04-29 15:19 36.28460 -11.05937 33926 ft 412 kts 229°
2026-04-29 15:20 36.24387 -11.10953 33926 ft 413 kts 229°
2026-04-29 15:20 36.20297 -11.15974 33930 ft 413 kts 229°
2026-04-29 15:21 36.16234 -11.20953 33930 ft 413 kts 229°
2026-04-29 15:21 36.12143 -11.25969 33927 ft 414 kts 229°
2026-04-29 15:22 36.08037 -11.30983 33930 ft 414 kts 228°
2026-04-29 15:22 36.03961 -11.35953 33933 ft 414 kts 228°
2026-04-29 15:23 35.99859 -11.40961 33932 ft 415 kts 228°
2026-04-29 15:23 35.95603 -11.45793 33937 ft 419 kts 219°
2026-04-29 15:24 35.90833 -11.49958 33932 ft 420 kts 219°
2026-04-29 15:24 35.86073 -11.54136 33932 ft 420 kts 220°
2026-04-29 15:25 35.81306 -11.58330 33937 ft 420 kts 219°
2026-04-29 15:25 35.76567 -11.62492 33933 ft 421 kts 219°
2026-04-29 15:26 35.71784 -11.66672 33938 ft 421 kts 219°
2026-04-29 15:26 35.67002 -11.70842 33942 ft 421 kts 219°
2026-04-29 15:27 35.62221 -11.75004 33943 ft 421 kts 219°
2026-04-29 15:27 35.57470 -11.79143 33943 ft 421 kts 219°
2026-04-29 15:28 35.52686 -11.83309 33946 ft 421 kts 219°
2026-04-29 15:28 35.47902 -11.87462 33946 ft 421 kts 219°
2026-04-29 15:29 35.43109 -11.91617 33945 ft 421 kts 219°
2026-04-29 15:30 35.33515 -11.99917 33956 ft 422 kts 219°
2026-04-29 15:30 35.28719 -12.04057 33948 ft 422 kts 219°
2026-04-29 15:31 35.23947 -12.08174 33960 ft 422 kts 219°
2026-04-29 15:31 35.19143 -12.12305 33952 ft 422 kts 219°
2026-04-29 15:32 35.14331 -12.16441 33948 ft 422 kts 219°
2026-04-29 15:32 35.09553 -12.20539 33954 ft 422 kts 218°
2026-04-29 15:33 35.04734 -12.24665 33953 ft 423 kts 218°
2026-04-29 15:33 34.99910 -12.28777 33953 ft 423 kts 218°
2026-04-29 15:34 34.95085 -12.32890 33950 ft 423 kts 218°
2026-04-29 15:34 34.90267 -12.37016 33959 ft 423 kts 218°
2026-04-29 15:35 34.85466 -12.41107 33950 ft 423 kts 218°
2026-04-29 15:35 34.80631 -12.45222 33952 ft 423 kts 218°
2026-04-29 15:36 34.75802 -12.49326 33956 ft 423 kts 218°
2026-04-29 15:36 34.70966 -12.53425 33959 ft 423 kts 218°
2026-04-29 15:37 34.66149 -12.57492 33959 ft 423 kts 218°
2026-04-29 15:37 34.61309 -12.61585 33962 ft 423 kts 218°
2026-04-29 15:38 34.56465 -12.65671 33962 ft 423 kts 218°
2026-04-29 15:38 34.51653 -12.69731 33963 ft 423 kts 218°
2026-04-29 15:39 34.46819 -12.73810 33967 ft 423 kts 218°
2026-04-29 15:39 34.42787 -12.77201 33966 ft 423 kts 218°
2026-04-29 15:40 34.37935 -12.81269 33969 ft 423 kts 217°
2026-04-29 15:40 34.33080 -12.85342 33967 ft 423 kts 218°
2026-04-29 15:41 34.28276 -12.89366 33968 ft 423 kts 217°
2026-04-29 15:41 34.23429 -12.93424 33967 ft 423 kts 218°
2026-04-29 15:42 34.18599 -12.97506 33971 ft 423 kts 218°
2026-04-29 15:42 34.13777 -13.01576 33971 ft 423 kts 217°
2026-04-29 15:43 34.08949 -13.05637 33970 ft 423 kts 217°
2026-04-29 15:43 34.04155 -13.09661 33970 ft 422 kts 217°
2026-04-29 15:44 33.99326 -13.13708 33967 ft 422 kts 217°
2026-04-29 15:44 33.94507 -13.17749 33971 ft 422 kts 217°
2026-04-29 15:45 33.89693 -13.21792 33970 ft 422 kts 217°
2026-04-29 15:45 33.84868 -13.25813 33971 ft 422 kts 217°
2026-04-29 15:46 33.80037 -13.29835 33975 ft 421 kts 217°
2026-04-29 15:46 33.75221 -13.33845 33976 ft 421 kts 217°
2026-04-29 15:47 33.70439 -13.37839 33975 ft 421 kts 217°
2026-04-29 15:47 33.65621 -13.41848 33973 ft 421 kts 217°
2026-04-29 15:48 33.60801 -13.45842 33974 ft 421 kts 217°
2026-04-29 15:48 33.55981 -13.49832 33975 ft 421 kts 217°
2026-04-29 15:49 33.51191 -13.53795 33972 ft 420 kts 217°
2026-04-29 15:49 33.46367 -13.57780 33977 ft 420 kts 217°
2026-04-29 15:50 33.41551 -13.61754 33979 ft 420 kts 216°
2026-04-29 15:50 33.36756 -13.65706 33976 ft 420 kts 216°
2026-04-29 15:51 33.31935 -13.69680 33976 ft 420 kts 216°
2026-04-29 15:51 33.27114 -13.73637 33975 ft 420 kts 216°
2026-04-29 15:52 33.22292 -13.77592 33980 ft 420 kts 216°
2026-04-29 15:52 33.17509 -13.81511 33987 ft 419 kts 216°
2026-04-29 15:53 33.12685 -13.85453 33990 ft 419 kts 216°
2026-04-29 15:53 33.07857 -13.89383 33980 ft 419 kts 216°
2026-04-29 15:54 33.03061 -13.93265 33975 ft 419 kts 215°
2026-04-29 15:54 32.98236 -13.97159 33980 ft 419 kts 215°
2026-04-29 15:55 32.93413 -14.01063 33975 ft 418 kts 215°
2026-04-29 15:55 32.88620 -14.04947 33991 ft 418 kts 215°
2026-04-29 15:56 32.83797 -14.08835 33980 ft 418 kts 215°
2026-04-29 15:56 32.78967 -14.12720 33992 ft 418 kts 215°
2026-04-29 15:57 32.74188 -14.16559 33984 ft 418 kts 215°
2026-04-29 15:57 32.69370 -14.20427 33986 ft 417 kts 214°
2026-04-29 15:58 32.64555 -14.24294 33983 ft 417 kts 214°
2026-04-29 15:58 32.59737 -14.28151 33991 ft 417 kts 214°
2026-04-29 15:59 32.54949 -14.31976 33988 ft 417 kts 214°
2026-04-29 15:59 32.50108 -14.35850 33981 ft 417 kts 214°
2026-04-29 16:00 32.45332 -14.39667 33980 ft 417 kts 214°
2026-04-29 16:00 32.40516 -14.43502 33990 ft 417 kts 214°
2026-04-29 16:01 32.35689 -14.47336 33991 ft 416 kts 214°
2026-04-29 16:01 32.30899 -14.51143 33983 ft 416 kts 214°
2026-04-29 16:02 32.26092 -14.54964 33986 ft 416 kts 214°
2026-04-29 16:02 32.21283 -14.58778 33990 ft 416 kts 214°
2026-04-29 16:03 32.16474 -14.62588 33989 ft 416 kts 214°
2026-04-29 16:03 32.11702 -14.66364 33990 ft 416 kts 214°
2026-04-29 16:04 32.06882 -14.70169 33996 ft 416 kts 213°
2026-04-29 16:04 32.02071 -14.73972 33985 ft 416 kts 213°
2026-04-29 16:05 31.97258 -14.77768 33990 ft 416 kts 213°
2026-04-29 16:05 31.92440 -14.81551 33989 ft 416 kts 213°
2026-04-29 16:06 31.87646 -14.85303 33998 ft 416 kts 213°
2026-04-29 16:06 31.82821 -14.89088 33985 ft 416 kts 213°
2026-04-29 16:07 31.78001 -14.92874 33982 ft 416 kts 213°
2026-04-29 16:07 31.73186 -14.96646 33981 ft 416 kts 213°
2026-04-29 16:08 31.68379 -15.00396 33984 ft 417 kts 213°
2026-04-29 16:08 31.63555 -15.04160 33986 ft 417 kts 213°
2026-04-29 16:09 31.58721 -15.07936 33978 ft 417 kts 213°
2026-04-29 16:09 31.53873 -15.11707 33985 ft 417 kts 213°
2026-04-29 16:10 31.49061 -15.15449 33988 ft 417 kts 213°
2026-04-29 16:10 31.44220 -15.19208 33979 ft 418 kts 214°
2026-04-29 16:11 31.39370 -15.22980 33983 ft 418 kts 214°
2026-04-29 16:11 31.34523 -15.26737 33981 ft 418 kts 214°
2026-04-29 16:12 31.29647 -15.30488 33982 ft 419 kts 213°
2026-04-29 16:12 31.24595 -15.33881 33980 ft 419 kts 209°
2026-04-29 16:13 31.19453 -15.37035 33980 ft 420 kts 209°
2026-04-29 16:13 31.14283 -15.40228 33977 ft 420 kts 210°
2026-04-29 16:14 31.09130 -15.43498 33977 ft 421 kts 210°
2026-04-29 16:14 31.03985 -15.46794 33973 ft 421 kts 210°
2026-04-29 16:15 30.98870 -15.50060 33976 ft 422 kts 210°
2026-04-29 16:15 30.93707 -15.53344 33971 ft 423 kts 210°
2026-04-29 16:16 30.88528 -15.56612 33973 ft 423 kts 210°
2026-04-29 16:16 30.83341 -15.59883 33969 ft 424 kts 210°
2026-04-29 16:17 30.78148 -15.63159 33975 ft 425 kts 210°
2026-04-29 16:17 30.72947 -15.66446 33967 ft 425 kts 210°
2026-04-29 16:18 30.67774 -15.69715 33972 ft 426 kts 210°
2026-04-29 16:18 30.62557 -15.73003 33973 ft 426 kts 210°
2026-04-29 16:19 30.57326 -15.76287 33974 ft 427 kts 210°
2026-04-29 16:19 30.52127 -15.79548 33976 ft 427 kts 210°
2026-04-29 16:20 30.46899 -15.82830 33969 ft 427 kts 210°
2026-04-29 16:20 30.41661 -15.86109 33980 ft 428 kts 210°
2026-04-29 16:21 30.36418 -15.89393 33971 ft 428 kts 210°
2026-04-29 16:21 30.31168 -15.92677 33981 ft 428 kts 210°
2026-04-29 16:22 30.25958 -15.95930 33978 ft 428 kts 211°
2026-04-29 16:22 30.20711 -15.99203 33981 ft 428 kts 211°
2026-04-29 16:23 30.15460 -16.02472 33973 ft 429 kts 211°
2026-04-29 16:23 30.10197 -16.05741 33985 ft 429 kts 211°
2026-04-29 16:24 30.04927 -16.09009 33966 ft 430 kts 211°
2026-04-29 16:24 29.99650 -16.12277 33976 ft 430 kts 211°
2026-04-29 16:25 29.94373 -16.15556 33976 ft 431 kts 212°
2026-04-29 16:25 29.89117 -16.18819 33976 ft 431 kts 211°
2026-04-29 16:26 29.83825 -16.22077 33976 ft 431 kts 212°
2026-04-29 16:26 29.78516 -16.25351 33643 ft 432 kts 212°
2026-04-29 16:26 29.75900 -16.26964 33380 ft 432 kts 211°
2026-04-29 16:27 29.73246 -16.28601 33113 ft 433 kts 211°
2026-04-29 16:27 29.70583 -16.30244 32851 ft 434 kts 211°
2026-04-29 16:27 29.68810 -16.31337 32584 ft 434 kts 211°
2026-04-29 16:27 29.65204 -16.33556 31312 ft 444 kts 211°
2026-04-29 16:28 29.63397 -16.34667 30780 ft 445 kts 211°
2026-04-29 16:28 29.60725 -16.36479 30008 ft 445 kts 218°
2026-04-29 16:28 29.58353 -16.38708 29436 ft 437 kts 226°
2026-04-29 16:28 29.56325 -16.41273 28845 ft 430 kts 233°
2026-04-29 16:29 29.54456 -16.43934 28278 ft 425 kts 233°
2026-04-29 16:29 29.52606 -16.46559 27727 ft 421 kts 233°
2026-04-29 16:29 29.50764 -16.49166 27180 ft 417 kts 233°
2026-04-29 16:29 29.48950 -16.51734 26642 ft 413 kts 233°
2026-04-29 16:30 29.47172 -16.54252 26116 ft 409 kts 233°
2026-04-29 16:30 29.45388 -16.56779 25599 ft 406 kts 233°
2026-04-29 16:30 29.44779 -16.57643 25411 ft 405 kts 233°
2026-04-29 16:30 29.43055 -16.60080 24903 ft 402 kts 233°
2026-04-29 16:31 29.41296 -16.62561 24389 ft 398 kts 233°
2026-04-29 16:31 29.39557 -16.65015 23906 ft 395 kts 232°
2026-04-29 16:31 29.37830 -16.67453 23391 ft 392 kts 232°
2026-04-29 16:31 29.36120 -16.69865 22914 ft 386 kts 232°
2026-04-29 16:32 29.34439 -16.72240 22462 ft 380 kts 232°
2026-04-29 16:32 29.32783 -16.74580 22054 ft 374 kts 232°
2026-04-29 16:32 29.31174 -16.76851 21645 ft 368 kts 232°
2026-04-29 16:32 29.29570 -16.79112 21259 ft 363 kts 232°
2026-04-29 16:33 29.26424 -16.83544 20489 ft 356 kts 232°
2026-04-29 16:33 29.24864 -16.85736 20095 ft 354 kts 232°
2026-04-29 16:33 29.23314 -16.87910 19710 ft 352 kts 232°
2026-04-29 16:34 29.21767 -16.90081 19320 ft 351 kts 232°
2026-04-29 16:34 29.20226 -16.92251 18918 ft 349 kts 232°
2026-04-29 16:34 29.18696 -16.94410 18512 ft 348 kts 232°
2026-04-29 16:34 29.17173 -16.96556 18077 ft 347 kts 232°
2026-04-29 16:35 29.15652 -16.98690 17660 ft 345 kts 232°
2026-04-29 16:35 29.14155 -17.00782 17256 ft 343 kts 232°
2026-04-29 16:35 29.12645 -17.02888 16841 ft 341 kts 232°
2026-04-29 16:35 29.11147 -17.04985 16436 ft 339 kts 232°
2026-04-29 16:36 29.09658 -17.07071 16029 ft 338 kts 232°
2026-04-29 16:36 29.08173 -17.09149 15629 ft 336 kts 232°
2026-04-29 16:36 29.06695 -17.11218 15219 ft 335 kts 232°
2026-04-29 16:36 29.05225 -17.13271 14821 ft 333 kts 232°
2026-04-29 16:37 29.03762 -17.15311 14420 ft 331 kts 232°
2026-04-29 16:37 29.02300 -17.17346 14007 ft 330 kts 232°
2026-04-29 16:37 29.00843 -17.19374 13579 ft 329 kts 232°
2026-04-29 16:37 28.99882 -17.20713 13299 ft 327 kts 232°
2026-04-29 16:38 28.97977 -17.23370 12764 ft 325 kts 232°
2026-04-29 16:38 28.96546 -17.25366 12354 ft 323 kts 232°
2026-04-29 16:38 28.95125 -17.27348 11944 ft 321 kts 232°
2026-04-29 16:38 28.93710 -17.29313 11539 ft 320 kts 232°
2026-04-29 16:39 28.92297 -17.31269 11115 ft 319 kts 232°
2026-04-29 16:39 28.90888 -17.33218 10704 ft 317 kts 232°
2026-04-29 16:39 28.89497 -17.35142 10498 ft 309 kts 232°
2026-04-29 16:39 28.88149 -17.37002 10348 ft 299 kts 232°
2026-04-29 16:40 28.86839 -17.38817 10180 ft 293 kts 232°
2026-04-29 16:40 28.85558 -17.40625 10117 ft 292 kts 237°
2026-04-29 16:40 28.84639 -17.42513 10031 ft 290 kts 250°
2026-04-29 16:40 28.84095 -17.44721 9698 ft 291 kts 263°
2026-04-29 16:41 28.84014 -17.47000 9237 ft 290 kts 272°
2026-04-29 16:41 28.84027 -17.49282 8864 ft 287 kts 271°
2026-04-29 16:41 28.84022 -17.51538 8153 ft 283 kts 271°
2026-04-29 16:41 28.84009 -17.53772 7414 ft 280 kts 271°
2026-04-29 16:42 28.83993 -17.55984 6846 ft 277 kts 271°
2026-04-29 16:42 28.83980 -17.58175 6304 ft 276 kts 269°
2026-04-29 16:42 28.83652 -17.60312 5753 ft 273 kts 249°
2026-04-29 16:42 28.82710 -17.62100 5608 ft 256 kts 229°
2026-04-29 16:43 28.81390 -17.63374 5544 ft 243 kts 210°
2026-04-29 16:43 28.79924 -17.64241 5475 ft 231 kts 207°
2026-04-29 16:43 28.78531 -17.65051 5374 ft 224 kts 208°
2026-04-29 16:43 28.77150 -17.65857 5298 ft 222 kts 207°
2026-04-29 16:44 28.75769 -17.66662 5098 ft 225 kts 208°
2026-04-29 16:44 28.74368 -17.67474 4792 ft 226 kts 208°
2026-04-29 16:44 28.72961 -17.68288 4473 ft 227 kts 208°
2026-04-29 16:44 28.71560 -17.69100 4198 ft 223 kts 208°
2026-04-29 16:45 28.70177 -17.69899 3873 ft 222 kts 208°
2026-04-29 16:45 28.68811 -17.70686 3590 ft 218 kts 208°
2026-04-29 16:45 28.67479 -17.71455 3313 ft 217 kts 208°
2026-04-29 16:45 28.66132 -17.72232 3000 ft 217 kts 207°
2026-04-29 16:46 28.64692 -17.72609 2726 ft 208 kts 182°
2026-04-29 16:46 28.63298 -17.72593 2591 ft 193 kts 176°
2026-04-29 16:46 28.61987 -17.72501 2457 ft 184 kts 176°
2026-04-29 16:46 28.60734 -17.72402 2225 ft 179 kts 176°
2026-04-29 16:47 28.59501 -17.72304 1897 ft 175 kts 175°
2026-04-29 16:47 28.58301 -17.72210 1505 ft 172 kts 174°
2026-04-29 16:47 28.57120 -17.72165 1182 ft 166 kts 185°
2026-04-29 16:47 28.56126 -17.72685 1010 ft 155 kts 226°
2026-04-29 16:48 28.55733 -17.73767 903 ft 150 kts 275°
2026-04-29 16:48 28.56125 -17.74815 952 ft 144 kts 318°
2026-04-29 16:48 28.56957 -17.75373 1025 ft 138 kts 348°
2026-04-29 16:48 28.57915 -17.75458 884 ft 139 kts
2026-04-29 16:49 28.58894 -17.75468 711 ft 144 kts 359°
2026-04-29 16:49 28.59912 -17.75505 529 ft 146 kts
2026-04-29 16:49 28.60943 -17.75529 320 ft 148 kts
2026-04-29 16:49 28.61934 -17.75552 140 ft 141 kts
2026-04-29 16:50 28.62814 -17.75564 101 ft 101 kts 359°
2026-04-29 16:50 28.63253 -17.75570 87 ft 50 kts 359°
2026-04-29 16:50 28.63477 -17.75577 80 ft 17 kts 359°
2026-04-29 16:50 28.63565 -17.75553 71 ft 14 kts 17°
2026-04-29 16:51 28.63614 -17.75589 75 ft 7 kts 240°
2026-04-29 16:51 28.63555 -17.75579 75 ft 18 kts 174°
2026-04-29 16:51 28.63383 -17.75575 84 ft 29 kts 179°
2026-04-29 16:51 28.63160 -17.75569 90 ft 35 kts 178°
2026-04-29 16:52 28.62897 -17.75562 99 ft 37 kts 179°
2026-04-29 16:52 28.62687 -17.75550 103 ft 28 kts 159°
2026-04-29 16:52 28.62534 -17.75449 111 ft 25 kts 175°
2026-04-29 16:52 28.62370 -17.75443 114 ft 23 kts 178°
2026-04-29 16:53 28.62218 -17.75442 114 ft 21 kts 179°
2026-04-29 16:53 28.62103 -17.75440 113 ft 7 kts 179°
2026-04-29 16:53 28.62066 -17.75424 112 ft 5 kts 117°
2026-04-29 16:53 28.62064 -17.75389 114 ft 4 kts 89°
2026-04-29 16:54 28.62064 -17.75359 114 ft 0 kts 89°
2026-04-29 16:54 28.62065 -17.75353 114 ft 2 kts 89°
2026-04-29 16:54 28.62065 -17.75351 114 ft 0 kts 89°